SL-14 DEB, 47091

Orbit data source: Space-Track

SL-14 DEB, 47091 is space debris in LEO originally from a launch on Thu, 15 Aug 1991 UTC launched from the Plesetsk Missile And Space Complex (PKMTR). Debris objects in space refer to the collection of defunct objects orbiting the Earth. Examples of debris include non-operational satellites, rocket bodies, and fragments generated from explosions, collisions, or faulty payload assembly.

Loading next visibility...
Identifier
47091, 1991-056DR
Orbit
LEO
Country
Flag of CISCIS
Related business
Manufacturer
Unknown
Mission
Spacecraft
Bus & Motor
Unknown
Mass
Unknown
Launch date (UTC)
1991-08-15 (35 years ago)
Launch vehicle
Unknown
Launch site
Plesetsk Missile And Space Complex (PKMTR)
Object type
Payload
Rocket body
Debris
Shape & HBR
Unknown shape, 0.1 m
Radar Cross Section
Small (<0.1 m²)

Expand to show TLE details & history
Last TLE update: 3 days ago

TLE from 3 days ago
0 SL-14 DEB
1 47091U 91056DR  26060.39611611  .00000579  00000-0  14005-2 0  9997
2 47091  82.5982 219.5803 0012492 239.8695 120.1192 13.20383555256414
Epoch: 2026-03-01T09:30Z
TLE epoch observation values (Epoch: 2026-03-01T09:30:24.431Z)
Latitude
-0.00003°
Longitude
-82.22598°
Altitude
1,190.818 km
Speed
7.256 km/s
True Right ascension
14h 38m 19s
True Declination
0° 00' 00"
Sunlit
Object was in partial shadow at epoch
Visualization orbit readout
Latitude
Unknown
Longitude
Unknown
Altitude
Unknown
Speed
Unknown
Apparent Right ascension
Unknown
Apparent Declination
Unknown
Sunlit
N/A
Visualization observer readout
Local Sidereal Time
02:16:34
Azimuth
Unknown
Elevation
Unknown
Doppler factor
Unknown
Orbital elements
Apogee altitude
1,189.936 km
Perigee altitude
1,171.051 km
Semi-major axis
7,558.63 km
Eccentricity
0.00125
Inclination
82.5982°
RAAN
219.5803°
Arg. of periapsis
239.8695°
True anomaly
120.24292°
Mean anomaly
120.1192°
Eccentric anomaly
120.18107°
Mean motion
3.30277 °/min
Orbital period
109 mins
BSTAR
0.0014005
Loading maneuver chart data...
Computing Atmospheric mass density...
Loading historical data...
Loading historical data...
Loading historical data...
Loading historical data...
Loading historical data...
Loading historical data...
Loading historical data...

Documentation

Showing up to 5 results
|